IW3HBX-13 Weather Reports


Display with metric or nautical units.
time (UTC)temp
F
wind
direction
speed
MPH
gust
MPH
rain 1hr
in
rain 24hr
in
rain mn
in
humidity
%
barometer
mb
20260509060608 63 54 2.0 2.0 0.00 0.00 0.00 74 1017.6
20260509055408 62 70 1.0 2.0 0.00 0.00 0.00 74 1017.6
20260509054808 62 323 3.0 4.0 0.00 0.00 0.00 77 1017.6
20260509053609 59 201 0.0 1.0 0.00 0.00 0.00 80 1017.6
20260509053007 59 201 2.0 2.0 0.00 0.00 0.00 83 1017.5
20260509052407 59 156 1.0 2.0 0.00 0.00 0.00 82 1017.5
20260509051807 59 156 0.0 0.0 0.00 0.00 0.00 82 1017.7
20260509050607 59 156 0.0 0.0 0.00 0.00 0.00 82 1017.6
20260509045406 58 156 0.0 0.0 0.00 0.00 0.00 82 1017.5
20260509044807 56 156 0.0 0.0 0.00 0.00 0.00 84 1017.5
20260509043656 55 156 0.0 0.0 0.00 0.00 0.00 88 1017.3
20260509043610 55 156 0.0 0.0 0.00 0.00 0.00 88 1017.3
20260509043009 56 156 0.0 0.0 0.00 0.00 0.00 87 1017.4
20260509042406 56 156 0.0 0.0 0.00 0.00 0.00 87 1017.2
20260509041807 55 156 0.0 0.0 0.00 0.00 0.00 87 1017.3
20260509040607 54 156 0.0 0.0 0.00 0.00 0.00 89 1017.3
20260509035407 55 156 0.0 0.0 0.00 0.00 0.00 89 1017.2
20260509034808 55 156 0.0 0.0 0.00 0.00 0.00 89 1017.2
20260509033607 55 156 0.0 0.0 0.00 0.00 0.00 88 1017.2
20260509033007 55 156 0.0 0.0 0.00 0.00 0.00 88 1017.3
20260509032410 56 156 0.0 0.0 0.00 0.00 0.00 88 1017.2
20260509031807 56 156 0.0 0.0 0.00 0.00 0.00 88 1017.2
20260509030607 56 156 0.0 0.0 0.00 0.00 0.00 89 1017.1
20260509025408 56 156 0.0 0.0 0.00 0.00 0.00 88 1017.1
20260509024809 56 156 0.0 0.0 0.00 0.00 0.00 88 1017.1
20260509023608 57 156 0.0 0.0 0.00 0.00 0.00 88 1017.3
20260509023007 57 156 0.0 0.0 0.00 0.00 0.00 88 1017.3
20260509022407 57 156 0.0 0.0 0.00 0.00 0.00 88 1017.2
20260509021807 57 156 0.0 0.0 0.00 0.00 0.00 87 1017.1
20260509020610 57 151 0.0 0.0 0.00 0.00 0.00 88 1017.1
20260509015407 57 151 0.0 0.0 0.00 0.00 0.00 88 1017.1
20260509014906 57 151 0.0 0.0 0.00 0.00 0.00 87 1017.1
20260509014810 57 151 0.0 0.0 0.00 0.00 0.00 87 1017.1
20260509013609 57 151 0.0 0.0 0.00 0.00 0.00 87 1016.9
20260509013010 57 151 0.0 0.0 0.00 0.00 0.00 87 1017.0
20260509012409 56 151 0.0 0.0 0.00 0.00 0.00 88 1016.9
20260509011807 56 151 0.0 0.0 0.00 0.00 0.00 88 1016.9
20260509010607 56 151 0.0 0.0 0.00 0.00 0.00 88 1016.9
20260509005409 57 151 0.0 0.0 0.00 0.00 0.00 86 1016.8
20260509004809 57 151 0.0 0.0 0.00 0.00 0.00 86 1016.9
20260509003609 57 151 0.0 0.0 0.00 0.00 0.00 85 1016.8
20260509003007 57 151 0.0 0.0 0.00 0.00 0.00 85 1016.8
20260509002406 58 151 0.0 0.0 0.00 0.00 0.00 85 1016.8
20260509001807 58 151 0.0 0.0 0.00 0.00 0.00 84 1016.8
20260509000607 58 151 0.0 0.0 0.00 0.00 0.00 84 1016.8
20260508235407 59 151 0.0 0.0 0.00 0.00 0.00 83 1016.8
20260508234808 59 151 0.0 0.0 0.00 0.00 0.00 83 1016.8
20260508233607 59 151 0.0 0.0 0.00 0.00 0.00 83 1017.0
20260508233009 59 151 0.0 0.0 0.00 0.00 0.00 83 1017.0
20260508232408 59 151 0.0 0.0 0.00 0.00 0.00 82 1017.1
20260508231807 59 151 0.0 0.0 0.00 0.00 0.00 83 1017.0
20260508230610 59 151 0.0 0.0 0.00 0.00 0.00 83 1017.0
20260508225408 59 151 0.0 0.0 0.00 0.00 0.00 83 1017.1
20260508224807 59 151 0.0 0.0 0.00 0.00 0.00 82 1017.1
20260508223607 60 151 0.0 0.0 0.00 0.00 0.00 81 1017.1
20260508223008 60 151 0.0 0.0 0.00 0.00 0.00 82 1017.0
20260508222407 60 151 0.0 0.0 0.00 0.00 0.00 81 1017.1
20260508221807 60 151 0.0 0.0 0.00 0.00 0.00 80 1017.0
20260508220653 60 151 0.0 0.0 0.00 0.00 0.00 79 1017.0
20260508220607 60 151 0.0 0.0 0.00 0.00 0.00 79 1017.0
20260508215408 61 151 0.0 0.0 0.00 0.00 0.00 79 1017.0
20260508214810 61 151 0.0 0.0 0.00 0.00 0.00 78 1016.9
20260508213607 61 151 0.0 0.0 0.00 0.00 0.00 77 1016.9
20260508213009 61 151 0.0 0.0 0.00 0.00 0.00 77 1016.8
20260508212410 61 151 0.0 0.0 0.00 0.00 0.00 76 1016.8
20260508211809 61 151 0.0 0.0 0.00 0.00 0.00 76 1016.8
20260508210607 61 151 0.0 0.0 0.00 0.00 0.00 75 1016.8
20260508205408 61 151 0.0 0.0 0.00 0.00 0.00 74 1016.8
20260508204807 62 151 0.0 0.0 0.00 0.00 0.00 74 1016.7
20260508203607 62 151 0.0 0.0 0.00 0.00 0.00 73 1016.7
20260508203008 62 151 0.0 0.0 0.00 0.00 0.00 72 1016.6
20260508202407 63 151 0.0 0.0 0.00 0.00 0.00 71 1016.6
20260508201807 63 151 0.0 0.0 0.00 0.00 0.00 71 1016.5
20260508200608 63 151 0.0 0.0 0.00 0.00 0.00 70 1016.5
20260508195407 64 151 0.0 0.0 0.00 0.00 0.00 69 1016.5
20260508194810 64 151 0.0 0.0 0.00 0.00 0.00 69 1016.4
20260508193607 64 151 0.0 0.0 0.00 0.00 0.00 69 1016.3
20260508193121 64 151 0.0 0.0 0.00 0.00 0.00 68 1016.2
20260508193009 64 151 0.0 0.0 0.00 0.00 0.00 68 1016.2
20260508192407 65 151 0.0 0.0 0.00 0.00 0.00 68 1016.1
20260508191807 65 151 0.0 0.0 0.00 0.00 0.00 67 1016.1
20260508190607 66 151 0.0 0.0 0.00 0.00 0.00 67 1015.9
20260508185407 66 151 0.0 0.0 0.00 0.00 0.00 67 1015.8
20260508184808 66 151 0.0 0.0 0.00 0.00 0.00 66 1015.7
20260508183607 67 151 1.0 2.0 0.00 0.00 0.00 65 1015.6
20260508183007 67 151 0.0 0.0 0.00 0.00 0.00 65 1015.4
20260508182407 67 151 0.0 1.0 0.00 0.00 0.00 64 1015.4
20260508181807 68 151 0.0 1.0 0.00 0.00 0.00 64 1015.3
20260508180610 68 179 1.0 2.0 0.00 0.00 0.00 63 1015.2
20260508175410 69 130 2.0 2.0 0.00 0.00 0.00 62 1015.1
20260508174807 69 130 2.0 3.0 0.00 0.00 0.00 62 1015.0
20260508173609 69 146 2.0 3.0 0.00 0.00 0.00 61 1014.9
20260508173007 69 130 3.0 4.0 0.00 0.00 0.00 61 1015.0
20260508172406 69 158 3.0 4.0 0.00 0.00 0.00 60 1014.9
20260508171806 69 141 2.0 2.0 0.00 0.00 0.00 59 1014.9
20260508170607 70 166 2.0 4.0 0.00 0.00 0.00 58 1014.9
20260508165411 70 149 3.0 5.0 0.00 0.00 0.00 58 1014.8
20260508165407 70 150 3.0 6.0 0.00 0.00 0.00 58 1014.9
20260508164810 70 142 2.0 6.0 0.00 0.00 0.00 58 1015.0
20260508163607 70 149 3.0 5.0 0.00 0.00 0.00 58 1014.8
20260508163010 71 165 2.0 4.0 0.00 0.00 0.00 59 1014.8
20260508162408 71 149 3.0 5.0 0.00 0.00 0.00 59 1014.8
20260508161807 71 147 4.0 6.0 0.00 0.00 0.00 59 1014.7
20260508160607 71 97 3.0 4.0 0.00 0.00 0.00 58 1014.7
20260508155410 71 145 3.0 6.0 0.00 0.00 0.00 58 1014.7
20260508154809 72 329 2.0 3.0 0.00 0.00 0.00 58 1014.7
20260508153607 72 104 3.0 5.0 0.00 0.00 0.00 57 1014.6
20260508153008 73 194 1.0 2.0 0.00 0.00 0.00 58 1014.7
20260508152408 73 194 1.0 2.0 0.00 0.00 0.00 57 1014.7
20260508151807 72 122 2.0 3.0 0.00 0.00 0.00 58 1014.8
20260508150607 73 168 2.0 3.0 0.00 0.00 0.00 56 1014.7
20260508145410 73 137 1.0 3.0 0.00 0.00 0.00 56 1014.9
20260508144807 73 168 3.0 5.0 0.00 0.00 0.00 57 1014.8
20260508143607 73 172 3.0 4.0 0.00 0.00 0.00 58 1014.9
20260508143009 73 118 2.0 3.0 0.00 0.00 0.00 58 1015.1
20260508142407 73 63 2.0 4.0 0.00 0.00 0.00 59 1014.9
20260508141808 73 72 3.0 4.0 0.00 0.00 0.00 59 1015.0
20260508140607 73 159 1.0 4.0 0.00 0.00 0.00 59 1015.1
20260508135407 73 113 2.0 6.0 0.00 0.00 0.00 60 1015.1
20260508134807 73 153 3.0 6.0 0.00 0.00 0.00 60 1015.1
20260508133609 74 190 2.0 4.0 0.00 0.00 0.00 60 1015.3
20260508133007 74 168 2.0 5.0 0.00 0.00 0.00 59 1015.3
20260508132409 75 88 1.0 3.0 0.00 0.00 0.00 59 1015.3
20260508131807 74 60 0.0 0.0 0.00 0.00 0.00 52 1015.3
20260508130610 74 71 3.0 3.0 0.00 0.00 0.00 52 1015.4
20260508125407 73 65 1.0 3.0 0.00 0.00 0.00 54 1015.5
20260508124808 74 322 2.0 4.0 0.00 0.00 0.00 53 1015.5
20260508123609 74 289 1.0 2.0 0.00 0.00 0.00 52 1015.6
20260508123008 73 36 2.0 3.0 0.00 0.00 0.00 53 1015.7
20260508122407 74 294 1.0 3.0 0.00 0.00 0.00 54 1015.7
20260508121807 74 301 2.0 2.0 0.00 0.00 0.00 54 1015.8
20260508120607 74 56 1.0 2.0 0.00 0.00 0.00 53 1015.9
20260508115409 72 78 1.0 2.0 0.00 0.00 0.00 55 1015.8
20260508114810 71 65 2.0 6.0 0.00 0.00 0.00 56 1015.9
20260508113607 74 26 0.0 1.0 0.00 0.00 0.00 52 1015.9
20260508113007 74 72 2.0 2.0 0.00 0.00 0.00 53 1016.0
20260508112408 71 64 1.0 2.0 0.00 0.00 0.00 55 1016.0
20260508111810 71 67 3.0 5.0 0.00 0.00 0.00 57 1016.0
20260508110608 72 249 0.0 0.0 0.00 0.00 0.00 57 1016.2
20260508105409 72 104 1.0 2.0 0.00 0.00 0.00 56 1016.3
20260508104808 71 96 1.0 2.0 0.00 0.00 0.00 57 1016.3
20260508103608 72 106 2.0 5.0 0.00 0.00 0.00 58 1016.4
20260508103007 72 43 1.0 2.0 0.00 0.00 0.00 56 1016.4
20260508102407 71 76 2.0 3.0 0.00 0.00 0.00 56 1016.6
20260508101808 71 149 2.0 3.0 0.00 0.00 0.00 57 1016.6
20260508100608 69 62 2.0 3.0 0.00 0.00 0.00 62 1016.6
20260508095407 69 64 3.0 5.0 0.00 0.00 0.00 63 1016.7
20260508094808 68 67 2.0 3.0 0.00 0.00 0.00 66 1016.7
20260508093610 69 65 0.0 1.0 0.00 0.00 0.00 61 1016.8
20260508093009 70 60 3.0 5.0 0.00 0.00 0.00 62 1016.9
20260508092410 69 118 2.0 3.0 0.00 0.00 0.00 66 1016.8
20260508091807 69 91 2.0 4.0 0.00 0.00 0.00 65 1016.9
20260508090608 67 28 2.0 4.0 0.00 0.00 0.00 69 1016.9
20260508085407 66 65 1.0 2.0 0.00 0.00 0.00 68 1016.9
20260508084810 67 62 1.0 2.0 0.00 0.00 0.00 70 1016.9
20260508084210 67 351 3.0 5.0 0.00 0.00 0.00 70 1016.9
20260508083608 66 35 3.0 5.0 0.00 0.00 0.00 72 1016.9
20260508083007 66 345 4.0 8.0 0.00 0.00 0.00 72 1016.9
20260508082410 66 324 3.0 4.0 0.00 0.00 0.00 71 1016.9
20260508081807 66 305 2.0 4.0 0.00 0.00 0.00 73 1017.0
20260508081208 66 66 3.0 5.0 0.00 0.00 0.00 74 1017.0
20260508080606 65 48 2.0 4.0 0.00 0.00 0.00 75 1016.9
20260508075409 64 7 1.0 2.0 0.00 0.00 0.00 76 1016.8
20260508074807 64 14 3.0 4.0 0.00 0.00 0.00 77 1017.0
20260508073607 63 55 1.0 3.0 0.00 0.00 0.00 78 1017.0
20260508073007 63 33 2.0 4.0 0.00 0.00 0.00 78 1016.9
20260508072408 64 63 1.0 4.0 0.00 0.00 0.00 77 1017.0
20260508071809 64 65 1.0 3.0 0.00 0.00 0.00 77 1016.9
20260508070608 61 39 2.0 4.0 0.00 0.00 0.00 81 1016.7
20260508065410 60 66 3.0 5.0 0.00 0.00 0.00 84 1016.8
20260508064808 60 54 3.0 4.0 0.00 0.00 0.00 83 1016.8
20260508063608 59 69 3.0 4.0 0.00 0.00 0.00 84 1016.8
20260508063009 58 59 3.0 5.0 0.00 0.00 0.00 86 1016.7
20260508062408 59 54 3.0 4.0 0.00 0.00 0.00 84 1016.7
20260508061810 58 69 2.0 5.0 0.00 0.00 0.00 86 1016.6